Theta_e
348 347 345 340 336 335 336 337 335 335 334 334 335 336 336 336 337 336 336 337 338 341 340 339 338 339 337 336 334 328 324 331 336 336 336 337 338 339 339 340 341 342 342 343 343 342 341 342 342 342 341 342 341 340 340 340 339 339 339 339 339 340 339 338 337 337 337 337 337 337 339 339 339 339 339 340 339 338 338 339 339 339 340 339 340
348 347 345 340 335 334 335 336 335 335 334 333 334 333 334 335 337 337 337 338 339 340 338 338 338 337 337 337 332 327 330 335 336 336 337 338 339 339 339 339 340 342 343 343 343 341 341 342 342 341 341 341 340 340 339 338 337 334 332 332 334 336 338 337 336 336 337 337 337 338 338 339 338 338 338 339 339 337 337 338 338 339 339 338 339
348 346 346 340 335 334 334 335 334 334 333 331 331 331 332 333 335 336 336 335 336 337 337 337 338 338 337 332 325 329 335 336 336 336 337 338 338 338 339 340 341 342 342 342 343 341 341 341 341 341 341 340 339 339 338 336 333 331 329 327 328 329 332 334 335 335 336 335 336 337 337 337 337 338 338 338 338 338 337 337 338 339 338 338 338
348 346 345 342 336 333 333 333 332 332 331 330 329 328 328 328 330 330 331 330 330 333 335 336 337 337 332 326 327 334 337 337 336 337 338 338 338 339 341 342 342 343 343 343 343 342 341 341 341 341 340 340 339 337 335 333 331 328 326 325 325 326 328 331 333 334 335 335 334 336 336 336 335 336 337 336 337 337 338 338 338 338 339 338 338
348 347 346 344 339 334 333 332 331 331 329 329 327 326 325 325 325 324 325 324 328 333 335 336 338 335 329 328 335 338 338 337 337 337 338 338 339 340 342 343 342 342 343 343 343 343 342 342 341 341 340 340 338 337 335 333 330 328 328 325 323 326 327 329 331 332 332 332 333 335 334 334 334 334 334 334 335 335 337 337 337 338 338 338 338
348 347 346 344 341 336 332 332 331 330 329 327 325 324 322 321 322 323 324 325 332 336 336 337 337 336 334 334 336 337 338 337 337 338 338 338 340 342 342 343 343 342 342 342 343 343 342 342 340 340 340 339 338 337 335 334 332 331 330 327 324 325 326 327 328 329 329 329 331 334 333 333 333 333 332 332 334 334 335 336 337 338 338 338 338
348 347 346 343 343 338 332 333 330 329 328 326 324 323 321 322 325 327 329 332 337 337 336 337 336 335 335 336 336 337 339 338 337 338 338 338 340 342 342 342 343 343 342 342 342 342 342 342 341 341 339 337 335 334 333 333 333 333 331 328 326 326 326 327 325 324 326 329 331 333 333 333 332 332 332 332 333 333 334 336 336 336 337 337 337
348 347 346 344 345 339 332 332 331 329 327 325 323 322 324 326 329 332 335 337 338 337 337 337 337 337 335 334 335 336 338 338 337 338 338 338 339 341 342 341 342 343 342 342 342 342 342 341 340 338 336 333 332 331 331 332 332 333 333 330 327 326 328 329 328 327 329 331 331 331 331 331 331 331 331 332 331 332 333 334 334 333 334 336 336
348 346 345 345 345 339 333 332 331 329 328 325 323 323 327 330 332 336 338 338 338 338 338 338 338 340 338 336 336 336 337 338 337 337 338 338 339 340 341 341 341 341 341 341 341 340 340 338 335 333 332 330 331 331 332 332 332 334 333 331 328 327 327 327 328 330 330 330 329 329 330 330 330 330 330 331 331 331 332 333 333 332 331 333 334
347 347 345 345 345 339 335 333 332 330 328 325 324 324 328 332 335 337 338 337 338 337 338 338 338 339 338 338 338 337 337 337 338 337 338 338 339 339 340 341 340 340 340 341 340 340 339 334 331 330 330 329 330 331 332 332 333 334 333 332 330 328 327 325 327 329 329 329 329 329 329 330 330 330 331 331 331 331 331 333 333 333 332 331 331
347 346 345 346 344 339 335 334 332 330 329 326 325 325 329 335 336 337 337 337 337 336 338 337 338 339 338 338 338 338 337 337 338 337 338 338 339 339 339 339 339 339 340 340 339 338 336 331 330 330 329 329 330 331 331 331 333 334 333 332 330 329 327 327 328 330 330 330 330 330 330 330 329 330 330 330 330 330 331 332 334 334 334 333 332
347 346 345 346 343 339 336 335 332 330 329 326 325 326 329 333 334 336 336 336 337 337 338 338 337 338 338 339 338 338 337 337 338 337 337 337 338 338 338 338 338 339 339 339 338 336 333 330 330 329 329 330 330 331 331 331 331 331 332 331 329 328 327 327 330 330 330 330 329 329 329 329 330 329 329 329 329 329 330 332 333 334 334 334 334
347 346 345 345 343 340 338 336 333 332 329 327 327 326 327 329 331 335 336 335 337 336 337 337 337 338 338 338 338 338 336 336 337 336 337 337 338 337 338 337 338 339 338 338 337 335 333 331 329 329 331 331 331 331 331 331 330 329 329 328 327 327 326 327 330 330 330 330 329 330 330 330 330 330 331 330 330 330 330 331 332 333 333 333 333
347 346 345 346 344 341 339 336 334 334 331 330 330 328 326 328 332 335 336 334 335 337 337 338 337 338 338 338 338 337 335 336 336 336 337 337 337 338 337 337 338 337 338 338 336 334 333 331 329 329 331 332 332 332 331 331 329 327 326 326 325 325 325 327 330 330 330 330 330 330 331 331 331 331 331 331 331 330 330 331 331 331 332 332 333
347 346 345 346 344 342 340 338 337 336 334 332 331 330 327 329 334 336 337 336 335 337 338 338 336 336 338 338 338 336 334 334 334 334 336 336 337 337 336 337 337 337 337 337 334 333 332 330 328 330 332 332 332 331 331 330 328 326 324 323 323 323 325 329 330 330 330 330 330 330 330 330 330 331 331 331 331 330 330 330 329 330 330 331 332
346 345 345 346 344 342 341 339 339 338 336 335 333 332 330 330 334 335 337 337 334 335 338 338 336 335 336 338 337 335 333 333 333 333 334 335 334 334 333 334 335 336 337 335 332 332 331 329 328 331 333 333 332 332 331 331 329 326 324 322 321 321 324 329 330 330 331 330 330 331 330 330 330 331 330 330 329 329 330 330 329 329 329 330 331
346 346 345 345 344 343 342 341 340 339 338 336 335 334 332 331 332 334 337 337 334 334 336 337 337 335 333 336 337 335 335 336 336 334 333 333 332 330 330 330 332 334 334 332 331 330 329 328 330 332 334 333 332 332 332 331 330 326 324 320 320 321 323 328 331 330 330 330 330 331 330 330 329 329 329 329 329 329 329 330 329 328 328 329 329
346 345 345 345 344 343 342 342 340 339 339 337 337 335 334 333 333 334 335 335 335 335 334 336 338 336 333 333 334 335 335 336 336 334 333 331 329 327 327 327 328 330 331 330 329 328 327 328 331 333 334 334 332 332 332 331 331 327 324 320 320 321 322 327 330 331 330 330 330 330 330 329 329 329 330 330 330 331 331 329 328 328 329 329 329
345 345 345 345 344 343 342 342 341 340 339 338 339 338 336 336 335 335 334 333 334 335 334 334 336 336 334 331 331 334 336 335 333 334 334 330 328 328 327 327 327 328 328 328 326 325 326 329 332 333 334 334 333 333 332 332 331 327 324 322 320 320 322 327 330 330 330 330 330 330 330 330 330 331 331 332 332 332 331 330 329 329 329 330 329
346 345 345 345 344 343 342 342 341 341 340 339 339 340 338 337 336 334 332 331 332 334 333 333 335 336 335 332 331 333 335 334 333 335 335 331 327 328 327 325 325 326 326 326 324 325 327 331 333 334 334 334 333 333 332 332 330 327 326 323 320 321 325 329 330 330 331 330 330 330 329 330 330 331 331 331 331 331 331 330 330 329 329 328 327
346 345 345 344 343 343 342 342 342 341 341 339 340 340 339 337 338 336 333 333 333 333 334 334 335 337 336 334 335 336 336 336 336 336 335 332 329 329 329 325 322 323 324 323 323 325 328 332 333 334 334 334 334 332 332 332 330 328 327 323 321 323 325 328 330 331 331 330 330 330 329 329 329 329 328 329 329 329 329 329 329 329 328 328 327
346 346 345 344 343 343 341 342 343 342 342 341 341 341 340 339 339 339 337 337 335 335 337 336 336 338 337 336 338 338 339 339 338 338 335 333 331 330 331 329 323 320 321 322 322 326 330 332 334 334 334 333 333 332 331 331 330 329 327 324 322 324 325 327 330 331 331 330 330 329 329 329 329 329 328 328 328 328 328 328 327 327 327 326 326
345 345 346 344 343 343 341 342 343 343 343 343 342 342 340 340 340 339 338 338 337 336 338 338 338 338 337 337 338 337 338 339 339 338 336 334 331 330 331 331 328 320 318 321 323 327 331 333 334 334 334 334 333 332 332 332 330 328 327 324 323 324 325 327 330 331 331 330 330 329 329 329 328 328 328 328 328 327 327 327 326 326 325 325 325
345 344 344 343 343 343 342 342 343 342 343 342 342 342 341 341 340 340 339 338 338 338 339 340 340 339 338 337 337 336 336 337 337 337 336 334 332 332 332 332 331 324 319 323 325 327 331 333 334 334 333 333 333 333 333 333 331 329 327 325 324 326 326 328 330 331 331 330 330 328 328 328 328 328 328 328 328 327 327 326 326 325 325 325 325
345 344 343 344 343 343 343 342 343 342 342 341 341 342 341 342 341 340 339 338 339 338 339 340 340 339 339 338 337 336 335 335 336 336 337 336 334 333 333 334 334 329 323 324 326 329 331 333 334 334 334 333 333 333 333 332 331 330 328 326 326 327 327 328 330 331 331 330 329 329 328 328 328 328 328 327 327 326 325 325 325 325 325 325 325
343 344 343 344 343 343 343 342 343 343 341 340 341 342 341 342 342 341 340 339 339 338 337 339 340 340 339 338 337 337 335 335 336 336 336 337 336 334 333 333 333 331 326 325 326 329 331 333 333 334 334 334 333 333 333 332 331 331 329 328 328 328 328 328 331 331 331 330 329 328 328 328 328 328 328 327 327 326 325 324 324 325 324 324 324
342 344 343 344 343 342 343 342 343 343 342 342 342 342 342 342 342 340 339 338 339 338 337 337 340 340 340 339 338 337 336 335 336 337 336 335 336 335 333 332 331 331 329 327 326 329 331 332 333 333 333 333 333 333 332 332 332 331 330 329 328 329 328 329 331 331 330 330 329 328 328 329 328 328 328 327 327 326 325 325 324 324 324 324 324
341 343 342 342 343 343 343 342 342 343 343 343 343 343 343 342 342 339 338 338 338 338 336 336 339 340 340 339 339 338 336 335 336 336 336 335 335 335 333 332 332 331 331 329 328 329 331 332 332 332 333 332 332 332 332 332 332 331 330 329 329 329 329 329 330 330 330 330 329 329 329 329 328 328 328 327 326 326 326 326 325 325 325 324 324
341 342 342 343 343 343 342 341 342 343 344 344 343 343 343 342 342 340 339 339 338 338 337 336 339 339 339 339 339 338 337 336 336 335 335 335 335 335 334 334 332 331 331 331 330 330 331 332 332 333 333 333 332 332 332 332 332 331 330 329 329 329 329 329 330 330 330 329 330 329 329 327 326 326 327 327 327 327 328 327 326 324 323 323 323
342 342 343 344 344 343 342 342 342 343 343 342 342 342 342 342 341 340 340 340 338 339 338 336 337 338 339 339 339 338 337 336 336 335 334 335 335 334 335 335 333 332 331 331 330 330 332 333 334 334 333 333 333 333 334 332 332 331 331 330 329 329 330 331 331 330 330 330 330 330 328 327 326 325 326 328 328 328 328 327 325 324 323 323 323
341 341 342 342 342 341 342 343 342 342 342 341 342 342 342 341 340 340 340 340 339 339 338 335 335 337 339 339 339 339 337 336 335 335 335 335 335 334 335 335 333 333 331 331 331 330 331 332 333 333 332 331 332 333 334 334 332 332 331 330 329 330 331 332 331 330 329 330 330 329 328 326 327 327 327 328 328 327 326 326 326 325 325 324 323
340 340 340 340 340 342 342 343 342 342 343 342 342 341 341 341 339 340 340 339 340 339 338 336 335 336 337 339 339 338 337 334 334 335 334 334 334 334 334 335 334 333 332 331 331 329 329 330 332 331 331 331 331 332 334 334 332 331 331 330 329 331 332 332 331 330 330 330 329 329 328 327 326 327 328 328 327 325 325 326 326 326 325 324 323
339 339 339 338 339 341 342 342 341 341 342 342 342 340 340 340 339 338 339 339 339 338 338 337 336 336 338 339 339 338 336 334 334 334 334 332 332 333 334 335 335 334 333 332 331 330 329 329 330 330 331 331 331 332 334 334 332 331 331 329 330 332 332 331 331 330 330 329 329 329 329 328 327 327 328 327 326 326 326 327 326 326 325 325 324
338 338 339 338 338 339 339 339 339 339 339 340 340 339 339 341 340 338 338 339 338 337 338 337 337 337 338 338 339 337 336 335 334 334 334 333 332 332 333 334 335 335 334 333 332 331 330 330 330 330 331 331 332 333 333 334 333 332 331 330 331 333 332 331 330 330 329 329 329 329 329 329 328 327 327 327 326 326 327 326 326 325 325 324 324
337 338 338 338 338 337 337 337 337 338 339 339 339 339 338 339 340 338 337 337 335 337 337 336 336 336 337 338 338 337 336 335 335 334 335 334 334 333 332 333 334 334 333 334 334 332 331 330 330 331 331 332 333 332 333 333 333 333 332 331 332 332 332 331 330 330 329 329 328 328 329 328 327 327 326 327 326 325 325 325 325 324 324 324 323
337 338 337 337 337 337 337 337 337 338 339 338 338 339 339 339 338 337 337 335 334 336 337 336 336 336 337 336 335 335 336 336 336 336 336 335 335 335 333 332 332 332 331 333 334 333 332 331 330 330 331 332 333 332 333 333 333 333 332 332 332 332 332 331 329 329 329 329 329 328 328 328 328 327 326 327 326 325 323 324 324 324 324 323 323
338 338 337 337 337 337 337 337 337 337 338 336 336 337 338 337 336 336 337 336 334 336 336 336 336 336 335 333 332 333 335 335 336 336 337 336 336 336 335 334 333 332 332 332 333 334 333 331 331 331 332 332 332 332 333 333 332 332 332 332 332 332 332 331 330 329 329 329 329 329 328 327 327 326 325 327 327 326 324 324 325 325 325 324 323
339 338 338 338 337 337 337 337 337 338 337 336 335 336 336 336 336 335 336 335 334 335 335 336 336 335 333 332 333 334 334 335 334 334 335 336 336 336 336 336 334 333 333 332 332 333 332 332 332 332 333 332 332 332 333 332 332 332 332 332 332 332 332 331 329 329 329 329 328 329 328 327 326 324 324 327 328 327 326 326 326 326 326 326 325
339 338 338 338 338 337 337 337 337 338 338 337 336 337 336 336 336 335 335 334 335 335 335 335 335 334 333 333 334 334 334 334 334 333 333 333 334 334 335 336 335 335 334 333 332 332 331 332 332 332 333 332 332 333 333 332 332 331 331 332 332 332 332 331 329 329 329 329 329 329 328 328 326 323 324 326 327 327 327 328 328 328 327 326 326
338 338 338 338 338 338 337 337 336 336 337 337 337 337 336 335 334 333 334 334 334 334 333 332 333 334 333 333 334 334 335 334 334 334 333 333 332 333 334 334 334 335 335 334 333 332 331 332 332 332 333 332 332 333 333 332 332 331 332 332 332 332 332 330 329 329 329 329 329 329 328 328 327 325 324 326 326 326 327 328 329 329 328 327 326
339 338 338 338 338 338 337 337 336 336 336 337 337 336 335 334 333 332 333 333 332 332 332 331 332 332 332 332 333 334 334 334 334 335 334 333 332 332 334 334 333 335 335 334 333 332 332 332 333 333 333 333 333 333 333 332 332 332 332 332 332 332 332 330 329 329 330 329 330 330 329 329 329 327 326 326 327 326 326 328 330 329 329 328 327
338 338 338 338 338 337 338 337 336 336 335 335 336 336 336 335 334 333 333 332 332 331 331 331 331 333 332 331 331 333 334 334 334 334 334 333 332 331 332 332 332 334 334 333 333 333 332 332 333 333 332 333 333 333 332 332 332 332 332 332 331 331 331 331 330 330 330 329 329 329 330 330 329 329 328 327 327 326 326 328 329 329 329 329 328
337 337 337 337 337 337 337 337 337 336 335 334 334 334 335 335 334 333 333 333 332 332 331 332 333 334 334 333 333 334 334 334 335 335 334 333 333 333 332 332 332 333 333 333 333 332 332 332 333 332 332 332 332 332 332 333 333 333 332 332 332 332 331 331 330 330 329 329 329 330 330 330 330 329 329 328 327 327 327 327 328 328 328 328 328
337 337 336 336 337 338 337 336 337 336 336 335 334 334 335 335 334 333 333 333 333 333 333 333 333 333 333 334 333 333 334 334 334 334 334 333 333 333 333 333 334 334 333 333 332 332 332 332 332 331 332 332 332 332 332 332 333 333 332 332 332 331 331 331 330 329 329 330 329 329 329 330 330 329 329 329 329 328 328 327 328 328 328 327 328
337 337 337 336 336 337 336 336 336 335 335 335 335 334 334 334 333 332 333 333 333 333 334 334 333 333 333 333 333 333 333 334 333 334 334 333 333 332 332 333 334 333 333 333 333 332 332 331 331 330 331 332 332 331 332 331 332 333 332 331 331 330 330 331 330 329 329 330 329 329 329 330 330 329 329 330 329 328 327 327 327 328 327 327 327
335 336 337 335 335 335 334 335 335 334 335 335 335 334 334 333 332 333 333 333 333 334 334 333 334 333 333 333 333 333 333 333 333 332 333 333 332 333 332 332 333 333 332 333 333 333 333 332 331 330 331 331 332 331 331 330 331 331 330 331 330 330 330 330 329 329 329 329 329 329 329 329 329 329 328 329 329 329 328 328 328 328 328 327 326
333 334 334 334 335 335 335 334 334 334 334 335 335 335 335 334 333 333 334 333 333 334 334 333 334 334 334 334 334 333 333 333 332 332 332 332 332 332 332 332 332 333 332 332 333 333 332 331 330 330 331 331 331 331 331 330 331 330 329 330 328 328 330 330 329 329 329 329 328 329 329 329 329 328 327 328 329 329 328 328 328 329 329 328 326
332 333 333 334 334 335 335 335 334 334 333 334 335 335 335 335 334 333 333 334 333 333 333 333 333 333 333 334 334 333 332 332 332 332 331 331 331 332 331 331 332 332 332 332 333 332 331 330 330 330 330 330 330 331 331 330 330 330 330 329 329 329 330 331 330 329 329 329 329 328 329 328 328 328 327 328 328 328 328 328 329 329 329 328 327
332 332 332 333 333 334 334 334 334 333 333 334 335 335 335 335 333 333 332 332 332 332 332 332 332 332 333 333 333 332 332 332 332 331 331 332 332 332 331 332 332 332 332 333 333 332 331 331 331 330 330 330 330 330 331 330 331 331 330 330 331 330 330 330 330 330 330 329 328 329 328 328 328 328 328 328 328 327 328 328 328 328 328 328 328
329 330 330 331 332 333 334 334 334 334 333 334 334 335 334 333 333 332 332 332 332 332 332 332 332 332 332 333 332 332 332 332 332 331 331 332 331 332 331 331 331 332 331 332 334 333 331 331 331 330 329 330 330 330 331 331 331 332 331 330 331 330 330 330 330 330 330 329 328 328 329 328 329 328 328 328 328 328 328 328 328 328 328 328 328
327 328 328 329 329 331 332 333 334 333 334 334 334 334 333 333 332 332 332 332 332 331 331 331 331 332 332 332 332 331 331 332 332 331 331 331 331 331 331 330 331 332 331 332 334 333 331 331 331 330 330 330 330 330 331 331 331 331 331 331 331 331 331 331 331 331 330 330 329 328 328 328 329 329 327 327 328 328 328 328 328 328 327 328 328
Wind_Speed
21 22 21 25 26 27 27 26 26 26 27 27 28 27 27 26 26 26 26 25 23 21 21 21 20 19 20 20 21 23 27 28 26 24 24 24 22 21 20 21 20 19 21 19 19 21 22 21 21 21 21 21 21 21 21 20 21 20 19 19 18 18 18 18 18 18 18 18 18 18 18 18 18 19 20 21 22 24 24 23 22 21 21 20 20
23 22 21 24 26 27 27 26 25 26 26 27 27 27 26 25 25 24 24 23 22 21 20 20 19 20 19 18 21 26 29 29 27 25 24 23 22 22 21 20 20 19 20 20 21 22 22 22 22 22 22 21 22 22 21 20 20 19 19 18 16 16 16 17 18 18 18 18 18 18 18 18 18 19 20 20 21 23 23 23 22 21 21 21 22
23 22 21 23 26 26 27 26 25 25 25 26 27 26 26 26 25 24 24 23 22 21 20 19 19 19 18 20 24 27 28 27 26 25 24 23 22 22 20 19 20 20 21 22 22 23 23 23 22 22 22 21 21 21 20 20 19 18 17 15 14 14 15 15 16 18 18 18 18 18 18 18 18 18 19 19 20 21 21 21 22 21 21 21 22
23 22 21 23 25 26 26 25 24 24 25 26 26 26 26 26 25 25 24 24 22 20 19 18 19 18 19 23 24 24 25 26 26 25 24 23 23 22 20 19 20 20 21 22 22 23 23 23 22 22 22 21 20 19 19 19 18 17 17 15 13 13 15 15 16 17 17 18 18 17 16 16 17 18 18 19 20 20 19 20 20 20 21 21 21
22 21 22 22 22 26 26 25 24 23 25 25 26 26 26 26 25 25 24 23 21 19 18 18 19 20 21 22 21 21 22 24 25 25 24 24 23 22 21 20 20 21 22 22 22 23 23 23 22 22 21 20 18 18 18 17 16 16 17 16 14 13 14 15 16 16 16 16 17 16 14 15 15 17 17 18 19 18 18 18 18 19 20 20 21
21 20 22 22 21 24 25 24 24 23 24 25 25 25 25 25 24 22 22 20 18 18 18 19 19 20 21 20 21 22 22 23 24 25 24 24 23 21 20 20 20 20 22 22 22 22 22 22 22 21 19 18 17 16 16 15 14 14 15 16 14 13 13 14 15 15 15 15 15 14 14 14 14 15 15 17 18 17 17 18 18 18 19 19 20
19 19 21 20 19 22 25 25 23 23 24 24 25 25 25 23 22 20 19 18 18 18 17 19 19 19 20 20 21 22 22 22 23 25 24 23 22 21 20 20 19 19 20 20 21 21 21 21 20 19 18 17 16 15 13 13 12 12 13 14 14 14 14 14 14 15 15 14 13 13 13 13 14 14 15 16 17 17 16 16 17 17 18 18 19
17 18 20 19 18 21 25 25 24 24 24 24 24 24 23 22 20 20 19 19 19 18 17 19 18 19 19 19 19 20 21 20 22 24 22 21 20 20 21 20 20 19 19 19 19 20 20 19 19 18 18 16 15 14 12 10 9 10 11 12 13 13 14 15 15 16 15 13 12 13 13 13 14 14 14 15 15 16 15 15 17 17 18 18 18
17 17 18 17 17 21 24 24 24 24 24 24 23 23 22 21 20 20 19 19 19 18 18 18 18 19 18 18 19 19 19 19 23 23 21 20 19 19 21 21 20 19 19 18 18 18 17 18 19 18 17 16 15 14 13 11 9 9 9 11 12 12 13 15 16 15 14 13 13 13 13 13 13 13 14 15 15 15 14 15 16 15 17 17 17
17 17 17 16 18 21 23 24 24 23 23 23 22 22 22 20 19 20 19 19 19 18 19 18 17 19 19 19 18 18 18 20 22 22 22 19 18 19 20 21 19 18 17 17 17 16 16 18 18 17 16 17 16 16 15 13 12 9 8 10 11 12 13 15 16 14 13 13 13 13 14 14 13 14 14 15 16 16 16 15 15 15 16 17 17
17 17 17 16 19 21 23 24 23 23 23 23 22 21 21 20 19 20 19 20 19 18 19 19 18 19 19 19 19 18 17 19 19 20 22 18 17 18 18 19 18 17 15 15 16 15 16 18 17 16 16 17 17 16 15 13 12 10 9 10 11 12 13 15 15 14 14 14 14 14 15 15 14 14 13 14 15 16 17 16 16 17 16 17 16
17 17 17 18 19 21 23 23 22 22 23 23 22 21 21 20 20 20 19 20 20 18 19 19 18 18 18 18 19 17 16 17 17 18 19 17 16 16 16 16 16 16 15 15 15 16 18 17 15 16 16 17 17 16 15 13 12 11 10 10 10 11 12 15 15 14 15 14 14 14 14 15 14 14 13 14 14 15 16 15 16 16 16 16 16
17 17 17 18 19 20 22 21 20 21 22 22 21 21 21 20 20 20 18 19 20 19 19 19 19 19 19 19 17 15 16 16 16 16 16 14 14 14 14 14 15 15 14 15 15 17 17 15 14 15 16 16 16 15 14 14 13 12 11 10 10 10 11 14 14 14 15 15 15 14 14 15 14 14 14 13 14 14 15 14 14 15 15 16 16
17 17 18 18 18 19 20 19 19 20 21 21 20 20 20 19 19 20 18 19 21 20 20 19 19 20 20 20 17 15 16 15 15 16 15 14 14 14 14 13 13 14 14 14 14 16 15 14 13 13 15 15 16 15 14 14 14 12 11 10 10 10 12 14 14 14 15 15 15 14 15 15 14 13 13 13 13 13 13 13 13 13 14 14 15
17 18 18 18 18 18 18 17 18 19 20 20 20 19 19 19 20 20 19 18 20 21 21 19 19 20 20 20 18 15 15 14 14 16 15 14 14 13 13 13 12 12 12 12 14 14 13 12 12 12 14 15 16 15 15 15 14 13 12 11 10 11 13 14 13 14 14 14 14 14 14 15 14 13 12 12 13 13 13 13 12 12 13 13 14
16 18 18 17 18 18 17 16 17 18 19 19 19 19 19 19 20 20 19 18 19 21 21 19 19 19 20 19 17 16 15 15 14 14 14 14 14 13 13 12 12 12 11 12 13 12 12 11 11 11 12 14 15 15 15 14 14 14 13 12 11 11 15 15 12 13 13 14 14 14 14 14 13 12 11 12 12 12 12 11 12 12 12 12 13
16 17 17 17 18 18 17 15 16 17 17 18 19 18 18 19 19 19 19 18 19 20 20 19 18 18 18 18 17 17 16 15 14 12 11 12 12 13 14 13 13 13 12 12 12 11 11 11 11 11 11 13 15 15 15 14 15 15 13 13 12 12 15 16 12 12 13 14 14 13 13 13 12 13 12 12 12 11 11 11 11 11 11 11 11
16 16 17 18 18 18 17 16 16 16 16 17 17 17 17 18 18 18 18 18 18 18 18 18 17 16 16 16 16 16 15 14 13 11 10 10 11 12 14 15 15 15 14 13 12 11 11 11 11 10 11 12 14 15 15 14 15 15 14 13 13 13 15 15 12 11 12 13 13 13 13 13 14 14 13 12 11 10 11 11 11 12 12 12 11
16 16 17 18 18 18 17 16 16 16 15 16 16 15 16 17 17 17 17 17 18 17 17 17 17 15 14 14 16 16 15 13 12 12 11 10 11 11 12 13 14 15 15 14 13 12 12 12 11 10 10 11 14 15 14 14 14 15 15 14 14 14 14 14 12 12 11 11 12 13 14 14 14 13 12 12 11 11 11 11 11 11 11 11 10
15 16 18 18 17 17 17 16 16 16 16 16 16 14 15 16 16 16 16 17 17 16 16 17 17 15 14 14 15 15 14 13 12 13 12 10 11 11 11 13 13 14 15 15 14 14 13 12 11 11 11 12 14 15 14 13 13 14 15 15 14 14 13 12 12 11 11 11 11 12 13 14 13 12 12 12 11 10 10 9 9 9 9 8 8
15 15 18 19 18 17 17 16 16 16 16 17 16 15 15 16 15 15 15 16 16 15 16 17 17 15 14 14 14 13 13 13 12 13 12 10 11 12 11 12 14 14 15 16 16 15 14 13 12 12 12 13 14 15 13 12 12 13 14 14 14 13 12 12 11 11 10 10 10 11 12 12 12 11 11 11 10 9 9 8 7 7 7 7 7
15 16 17 18 18 16 17 17 16 16 17 16 16 15 16 16 15 14 15 15 15 15 15 16 15 14 14 14 13 12 12 13 12 12 12 11 11 12 10 10 13 15 16 17 17 15 14 13 13 13 14 14 14 15 13 11 11 12 13 14 14 13 12 12 11 11 10 9 9 10 11 10 10 10 11 10 10 9 8 7 7 7 7 7 7
15 17 17 18 17 15 16 16 16 17 17 16 15 15 16 15 14 14 14 14 14 14 14 14 13 13 13 13 12 12 13 13 13 12 12 12 12 12 11 9 11 15 17 17 17 16 14 13 13 14 14 15 15 15 14 12 11 11 12 13 13 12 12 12 11 10 10 9 9 10 11 10 9 10 10 10 9 9 8 7 8 8 8 8 8
14 16 17 18 16 15 17 16 16 18 18 17 16 16 16 14 14 14 14 14 14 13 13 14 13 13 13 13 12 12 13 13 13 12 11 12 13 13 12 10 10 13 18 19 17 16 15 14 13 14 15 15 15 15 14 13 12 11 11 12 12 12 12 11 9 9 9 9 8 9 12 11 9 9 9 10 9 8 8 8 8 8 8 9 9
14 15 16 17 16 15 16 17 17 17 18 18 17 17 16 14 13 14 14 15 15 14 14 15 14 14 14 13 12 12 12 12 12 12 11 10 12 13 11 10 10 12 18 19 18 16 16 15 14 15 15 15 15 14 13 12 12 11 11 11 11 11 11 10 9 9 9 8 8 9 10 10 9 9 9 9 9 9 9 9 8 8 8 8 8
14 15 15 16 15 15 15 16 17 16 17 17 16 16 15 14 14 14 14 14 16 15 15 16 15 15 14 13 13 12 12 11 12 12 11 10 10 12 12 12 12 13 16 17 18 17 16 15 15 15 15 15 15 14 12 12 11 11 10 10 10 10 10 10 9 8 8 8 7 8 9 8 8 8 8 8 8 9 9 8 8 8 8 8 8
15 14 15 16 15 14 14 16 17 16 16 16 15 16 16 15 15 16 15 15 16 15 15 17 16 16 15 15 14 13 13 13 13 13 12 11 10 11 14 14 14 14 14 15 17 17 16 15 15 15 15 15 15 13 12 10 10 10 10 10 9 9 8 9 8 8 8 8 7 8 9 8 7 8 8 8 8 9 8 8 8 8 8 8 7
15 13 14 16 16 14 14 17 19 18 16 15 16 16 17 16 15 16 16 16 16 15 16 18 17 16 16 16 16 14 14 13 13 14 13 13 11 12 14 15 15 15 14 15 16 17 16 15 15 16 16 16 15 13 12 10 9 9 9 9 9 8 8 8 8 8 8 8 7 7 9 7 7 8 7 8 8 8 7 8 8 7 7 7 7
14 14 15 16 17 16 16 17 17 16 14 15 16 16 16 16 15 15 16 15 15 16 16 17 17 18 17 17 16 16 14 13 13 13 14 14 13 14 13 13 16 16 16 15 16 17 16 15 15 16 16 15 15 14 12 11 9 8 8 8 8 7 7 7 7 8 8 8 6 6 7 6 6 7 7 7 7 7 7 8 8 7 6 6 7
16 15 15 15 15 16 15 14 14 14 13 15 16 16 16 15 15 15 15 15 15 16 16 17 19 20 19 17 17 17 15 13 13 13 14 14 14 15 13 13 15 16 17 16 16 16 16 16 15 15 14 14 14 13 12 11 10 9 8 8 8 7 6 5 6 7 7 7 6 5 6 6 6 7 8 7 7 8 7 7 7 6 6 7 7
16 15 15 15 13 14 15 13 13 15 15 16 16 14 14 15 15 15 14 14 15 17 17 19 21 21 20 19 17 17 16 15 14 14 14 14 13 15 15 15 14 15 18 17 17 16 16 16 15 14 13 12 13 12 12 11 10 10 9 9 9 7 6 5 5 6 7 6 6 6 6 6 6 6 7 7 7 7 6 5 5 6 7 6 6
14 14 15 15 14 13 13 14 14 15 15 15 15 13 13 15 15 15 14 14 16 17 18 19 20 20 20 20 19 17 17 16 14 14 15 15 14 14 16 15 14 15 17 18 17 16 15 15 15 13 12 11 12 13 13 12 11 11 10 10 9 7 5 5 5 5 6 6 6 6 6 7 7 6 7 7 6 6 5 5 6 6 6 5 6
11 11 12 12 12 11 10 12 14 14 12 12 14 14 13 15 15 15 15 15 16 15 17 19 19 20 19 20 20 18 18 17 15 14 15 16 15 14 15 16 15 15 16 17 17 16 14 14 14 13 13 12 12 13 12 11 11 12 12 11 9 7 6 6 6 6 5 5 5 6 6 7 6 6 6 7 5 5 5 5 6 6 5 5 5
8 9 10 10 10 12 13 13 13 14 14 14 15 14 14 14 14 14 16 16 16 16 17 19 19 20 20 20 21 20 19 17 16 15 15 16 16 15 14 15 16 15 16 17 17 15 13 12 13 14 14 13 12 11 10 9 9 10 11 11 9 6 6 7 6 6 5 5 5 5 6 6 6 6 6 5 5 5 4 4 5 6 6 5 5
8 9 10 9 9 12 13 13 12 13 15 16 15 14 14 16 14 14 16 15 16 16 16 18 19 19 20 21 21 20 17 16 16 15 15 17 16 15 15 15 15 16 16 16 15 14 13 12 12 14 15 13 10 9 8 8 8 8 9 9 8 6 6 7 6 6 6 5 5 5 5 6 6 6 6 5 4 4 4 4 5 5 6 5 5
11 10 9 8 8 10 11 11 11 13 15 15 14 13 14 16 15 15 16 13 14 16 16 17 17 18 19 16 16 16 14 14 15 16 17 17 17 16 15 15 16 16 16 15 15 13 13 12 11 13 15 12 10 9 7 7 7 7 8 8 7 7 7 7 7 6 6 5 5 5 5 5 5 5 7 7 6 5 5 6 7 6 6 6 6
10 9 8 7 7 8 9 10 10 12 14 13 13 14 14 15 14 15 16 13 13 15 16 17 16 15 13 9 11 15 15 14 15 17 19 19 18 17 16 16 16 15 14 15 16 14 13 12 11 12 14 13 11 9 8 7 7 8 8 8 7 7 6 7 7 6 5 5 6 6 5 5 5 6 7 7 7 6 6 7 8 7 7 7 7
6 6 6 6 6 6 7 8 9 10 13 13 13 14 15 16 16 16 17 16 17 16 15 16 13 11 11 10 12 15 17 17 15 16 18 19 18 16 16 17 16 16 14 14 15 15 14 13 11 11 11 12 12 10 8 8 8 8 8 8 8 7 7 6 6 6 5 6 6 5 5 5 5 7 8 7 7 7 6 7 7 6 6 5 5
4 4 4 5 5 5 5 7 9 11 13 14 15 16 16 17 17 18 20 20 19 16 14 13 10 10 12 12 12 13 16 18 17 16 15 18 18 16 17 17 16 17 15 14 15 14 15 14 13 12 9 9 10 9 9 9 8 8 9 8 8 8 7 7 6 5 6 6 6 5 5 5 5 7 7 6 7 6 6 5 4 4 5 4 4
2 3 4 4 5 5 5 6 8 10 13 15 16 16 15 15 14 15 19 20 17 13 12 12 10 11 11 10 11 12 12 14 16 16 15 16 17 17 19 17 16 17 16 16 17 16 17 15 13 12 11 9 8 8 9 10 10 9 9 9 8 8 8 8 8 7 6 6 6 5 5 5 5 6 6 6 6 5 5 4 3 3 3 4 4
2 3 3 4 5 5 6 7 9 10 13 17 17 15 13 14 13 13 17 19 16 12 12 13 12 11 11 10 11 12 10 11 12 14 15 16 15 16 18 17 16 16 15 17 19 17 18 17 14 12 12 11 10 10 11 12 12 11 9 9 8 7 8 9 9 7 7 7 7 7 6 6 6 6 6 6 5 5 5 3 3 3 3 4 5
2 3 4 4 4 5 6 8 10 11 13 15 15 15 17 17 14 11 13 15 16 15 14 15 14 12 11 11 13 12 11 11 12 12 14 15 14 13 17 18 18 16 15 18 20 17 17 17 16 14 12 12 11 11 14 13 11 11 11 8 7 6 7 9 9 8 9 10 9 8 7 6 6 7 7 6 6 6 6 5 3 3 2 3 5
1 2 3 4 5 7 8 10 12 13 13 12 12 13 15 17 14 11 10 11 13 14 15 14 14 12 11 11 12 13 12 12 13 13 13 15 14 14 15 16 17 17 16 19 20 17 17 16 16 16 14 12 11 13 16 13 10 12 11 7 5 5 5 6 8 8 8 10 11 9 8 7 6 7 8 8 7 7 7 7 5 3 3 3 4
1 2 3 5 7 8 9 11 13 13 13 13 13 13 14 16 14 11 11 10 10 11 12 12 12 12 12 12 13 14 14 13 13 13 14 15 15 15 15 14 16 17 16 19 21 19 19 19 18 18 18 15 11 13 17 14 11 12 9 5 5 5 3 5 8 8 6 8 10 10 9 7 6 5 7 8 7 7 6 7 5 4 3 3 3
1 2 3 6 7 8 9 11 11 11 11 12 12 12 13 12 10 9 10 11 10 10 11 11 12 13 13 13 14 15 15 14 13 13 14 16 15 15 16 15 15 16 16 18 21 19 20 20 19 20 20 17 13 13 16 14 13 13 9 5 4 4 4 6 8 7 7 9 9 9 9 7 7 6 6 7 7 7 6 5 5 4 3 3 3
0 1 3 6 8 8 9 11 12 11 11 10 11 12 13 11 7 8 10 11 12 12 12 12 12 13 12 12 12 14 16 15 14 14 14 16 17 17 18 17 16 17 17 19 20 19 19 17 19 23 22 19 16 14 15 14 14 15 12 8 5 2 4 7 7 5 7 9 8 7 7 7 7 7 7 6 6 7 6 5 5 4 4 3 4
3 4 5 8 9 9 9 11 12 12 11 10 11 12 13 13 10 10 12 13 14 13 10 11 12 12 11 10 10 12 15 15 14 15 15 15 17 19 19 18 18 19 20 21 21 18 17 17 22 26 24 22 19 16 16 15 15 16 11 8 6 4 6 9 6 5 6 7 8 7 7 7 7 7 7 7 6 6 7 6 5 5 5 4 4
4 5 6 8 9 9 9 10 11 12 12 12 12 13 15 15 12 11 12 13 15 13 10 10 12 12 11 10 9 12 15 16 15 16 15 15 16 19 19 19 19 21 22 23 22 17 16 19 24 26 24 22 20 15 16 17 16 15 12 8 5 5 8 8 6 6 5 5 7 7 6 6 5 7 8 6 6 7 7 6 5 5 5 5 5
4 5 7 7 8 8 9 9 10 11 13 13 12 13 14 14 13 13 12 12 12 13 11 10 11 12 12 10 10 12 14 15 14 14 15 15 17 19 20 20 20 22 24 23 21 18 17 21 24 25 23 23 22 18 16 17 16 16 14 10 6 7 8 6 5 6 4 4 5 6 7 6 5 6 8 6 6 7 7 6 4 5 5 5 5
5 7 9 9 9 9 9 10 10 10 12 13 11 11 13 13 13 13 13 12 12 11 11 11 12 12 13 12 11 13 13 13 13 15 16 16 18 19 20 22 22 22 22 21 21 19 17 20 22 23 23 21 20 20 17 15 16 15 15 13 9 10 9 6 6 7 4 3 3 5 8 8 6 7 7 6 6 6 6 6 5 4 4 4 4
7 8 10 10 10 10 9 10 11 11 12 13 12 12 13 13 12 12 13 13 12 12 13 13 13 13 14 14 13 13 14 13 13 15 15 15 17 18 19 21 22 21 19 20 22 18 16 19 20 21 23 21 21 21 17 14 15 15 15 15 12 11 9 7 7 8 6 5 4 5 7 8 7 7 7 6 5 5 5 5 4 4 4 3 2
Wind_Direction
159 158 156 160 159 157 156 155 154 150 147 145 145 145 145 144 145 147 147 146 141 134 132 134 132 128 127 128 127 125 122 118 116 118 121 121 123 124 116 108 108 107 106 107 106 108 108 107 106 107 105 105 104 102 100 97 95 95 94 95 96 97 98 100 100 96 93 93 93 91 88 86 85 81 78 75 74 75 76 76 77 77 75 75 76
156 155 153 158 159 157 156 155 154 151 150 148 147 147 147 145 144 144 144 142 136 132 133 132 130 128 127 128 127 124 118 114 116 119 120 121 122 117 112 112 114 111 109 108 108 109 108 107 106 105 103 101 102 99 99 97 96 95 94 94 96 100 103 106 107 105 101 98 94 91 87 84 83 82 80 77 74 74 75 75 76 75 75 77 77
150 154 152 157 159 157 156 155 154 153 151 150 149 148 148 148 145 143 142 140 136 133 132 130 128 127 127 129 127 123 116 117 120 120 121 121 120 116 115 117 117 113 110 110 109 109 108 108 107 105 103 101 99 98 100 100 98 95 92 91 98 105 109 113 114 113 110 107 100 91 86 82 80 80 80 79 76 74 74 76 77 77 78 78 77
147 151 151 155 158 156 156 155 155 154 153 151 150 149 148 148 148 147 145 142 138 133 131 128 127 127 129 127 124 121 119 122 123 122 122 121 119 118 117 113 112 112 111 112 111 110 110 109 107 105 103 100 100 101 102 99 97 92 87 84 95 109 113 115 117 116 114 113 104 91 86 83 78 76 78 79 78 77 75 75 77 78 79 79 79
146 148 151 152 154 155 155 155 154 154 154 153 151 150 149 148 148 147 145 143 138 131 129 128 128 128 126 123 122 123 123 124 124 123 123 122 122 120 116 112 112 114 114 114 112 111 110 109 108 105 102 101 100 100 98 96 95 90 84 78 87 106 114 116 120 119 117 116 102 91 91 88 82 75 76 79 79 80 80 78 78 79 79 78 78
144 148 151 151 151 155 155 154 154 155 155 153 152 150 149 148 145 143 141 138 131 128 128 130 130 127 124 122 124 126 125 125 126 125 125 124 124 121 117 114 113 115 116 116 115 113 112 111 108 106 105 105 103 97 94 92 91 86 83 81 86 99 111 116 120 122 122 118 99 89 90 88 85 77 75 80 82 83 83 81 79 79 79 78 77
143 148 151 150 149 155 156 155 156 156 155 154 151 149 148 145 140 136 133 131 127 127 129 131 129 125 124 125 126 128 126 127 129 128 126 127 127 123 118 116 115 116 117 116 116 114 113 111 110 111 111 108 102 94 88 83 84 84 84 86 88 97 105 108 116 120 114 105 93 89 90 87 86 81 79 82 83 84 85 83 80 80 80 78 77
142 149 151 149 148 154 156 155 156 157 157 154 152 148 145 141 137 132 129 129 127 128 130 130 127 124 121 122 125 128 127 127 130 128 127 130 129 125 121 120 120 119 118 116 115 113 112 112 114 116 113 105 96 90 85 83 86 88 88 89 92 100 104 104 108 108 99 91 90 90 90 89 88 86 84 85 86 88 90 85 80 80 82 80 79
142 149 150 148 149 155 156 156 157 158 158 155 153 148 144 139 135 131 130 130 129 131 132 130 128 127 124 121 123 126 127 129 132 131 131 132 132 132 128 126 127 125 122 120 117 115 114 114 117 116 111 101 94 89 86 88 95 96 95 95 96 100 107 110 107 100 92 91 90 88 90 91 90 89 88 89 89 90 92 88 83 81 81 82 82
143 148 150 147 151 155 155 156 158 160 158 155 153 148 143 137 133 132 132 132 131 134 133 132 132 129 126 124 123 123 124 131 136 136 138 137 137 141 136 130 131 128 125 124 121 119 116 117 119 113 107 100 94 91 86 86 96 103 101 102 99 99 107 110 104 96 92 93 89 89 93 92 90 92 91 92 90 89 92 93 93 89 82 81 81
146 149 149 147 153 157 154 156 158 160 158 155 151 146 141 135 135 134 134 134 134 137 135 135 135 130 127 124 123 121 122 129 134 140 144 143 141 144 141 133 131 131 127 126 124 121 118 119 116 108 102 98 96 94 88 85 93 102 104 105 102 101 106 105 99 95 94 94 91 90 91 91 92 94 94 94 91 91 93 90 91 89 86 84 80
147 148 149 150 155 156 154 156 158 158 157 154 149 145 142 139 139 137 138 140 138 139 138 139 136 131 128 127 125 123 125 129 130 137 143 144 144 145 144 136 131 132 129 129 127 124 121 117 111 103 99 97 98 96 91 88 90 95 102 106 104 106 108 105 101 96 96 94 93 92 89 89 91 94 95 96 94 95 97 93 89 88 88 88 84
146 147 151 151 154 155 154 155 156 157 156 153 149 147 145 143 142 139 142 144 140 141 143 141 137 134 132 130 128 128 131 133 132 134 135 137 140 141 144 141 135 135 135 133 129 126 124 119 109 101 99 98 100 100 96 93 90 93 99 106 107 112 113 109 104 99 98 95 95 94 92 91 94 96 96 96 95 97 101 97 92 90 90 89 87
144 146 151 149 153 155 154 153 153 156 155 153 151 149 148 145 143 142 144 144 142 143 144 141 138 139 136 134 134 135 137 134 135 137 135 136 139 142 147 145 140 139 137 134 131 130 130 123 110 102 100 99 103 104 101 96 93 94 98 106 112 117 116 111 107 103 101 99 97 94 93 95 97 97 96 96 95 96 98 98 95 94 94 93 90
144 147 151 148 150 153 154 150 152 154 154 155 153 151 149 146 145 144 144 144 145 145 144 142 142 142 139 139 140 139 138 134 137 139 139 144 147 149 150 147 144 142 138 136 137 139 135 124 112 106 101 101 106 106 103 98 95 94 97 104 112 119 119 114 108 105 103 101 99 96 95 97 99 97 96 95 94 93 95 99 100 99 101 99 94
145 147 150 150 149 149 152 149 150 154 155 155 151 150 149 148 148 146 145 146 146 145 145 145 145 146 144 143 143 141 138 134 134 138 144 150 152 151 149 148 146 145 143 144 146 147 139 126 117 109 101 102 108 109 105 99 94 92 94 101 108 118 122 117 110 105 104 102 99 97 97 99 102 98 93 92 92 92 93 97 98 99 102 101 97
145 147 148 151 151 149 150 150 152 154 155 154 151 150 150 150 149 147 147 148 148 147 148 148 148 150 147 146 145 142 141 140 137 138 145 150 153 154 154 155 153 151 152 153 152 151 142 129 121 110 102 106 112 113 109 101 95 91 92 100 107 116 123 119 111 106 106 104 100 98 99 101 100 94 92 93 93 93 93 93 93 98 99 98 97
144 147 149 151 152 152 151 152 153 151 152 151 151 152 151 152 150 150 151 152 151 150 152 153 152 151 147 149 148 143 143 145 143 142 140 145 153 157 159 162 163 163 161 157 155 153 145 134 123 110 105 112 117 117 112 104 97 94 94 100 107 114 120 117 112 110 110 106 99 99 102 103 100 98 99 99 96 95 94 91 91 98 99 97 97
146 148 151 153 154 155 155 155 152 150 150 149 152 155 155 154 154 155 155 155 153 152 155 154 153 152 146 147 148 148 149 150 149 147 144 145 153 158 160 162 166 169 164 158 157 156 147 136 124 112 113 120 121 120 115 108 101 98 97 100 107 112 115 114 113 112 110 105 100 102 104 103 103 102 101 101 99 97 97 93 93 99 100 99 100
149 152 155 158 159 159 158 157 154 153 152 151 153 156 159 158 158 159 157 158 156 155 156 153 153 152 147 145 146 150 153 155 154 153 151 150 156 161 162 164 168 169 165 160 159 156 147 135 126 121 124 129 126 122 117 110 104 99 97 99 104 108 113 116 115 110 106 103 100 105 111 110 107 102 98 99 100 97 94 90 91 96 96 97 98
147 153 160 162 163 163 160 158 156 157 156 155 154 158 164 162 162 162 161 161 159 158 156 154 154 154 153 150 150 154 156 159 158 158 156 154 159 162 164 167 170 170 166 162 161 157 147 134 130 131 131 134 130 124 119 112 105 98 96 97 100 105 112 116 115 109 105 102 100 108 117 115 111 108 105 102 100 96 90 86 85 85 87 88 90
149 153 159 164 166 164 163 160 159 161 160 160 159 162 166 165 165 164 164 165 163 160 157 157 156 157 161 159 160 164 165 165 165 165 160 159 164 163 164 165 167 170 167 163 164 159 147 136 136 138 136 136 134 129 126 120 110 102 98 98 101 106 110 114 115 111 107 102 103 111 113 109 108 108 106 104 101 98 93 88 84 79 79 82 86
156 157 158 165 166 165 165 163 165 167 166 167 167 167 168 167 166 166 166 167 166 164 162 162 161 163 167 168 171 171 170 172 173 171 163 161 166 167 164 161 162 166 164 163 166 161 148 140 140 141 138 138 138 135 135 134 125 113 107 105 107 108 110 114 116 115 111 106 111 120 116 108 105 105 104 102 98 97 93 86 83 79 77 79 80
161 161 162 169 169 167 167 166 171 174 174 174 171 170 170 168 169 171 170 171 171 173 172 169 169 171 175 178 177 175 174 177 180 175 166 163 167 170 166 160 158 160 160 160 163 161 151 144 142 143 142 142 143 141 141 140 134 125 118 115 113 111 113 117 118 117 113 109 115 119 116 115 112 109 106 102 98 95 90 87 87 86 82 79 77
160 162 164 172 173 172 170 171 176 180 182 179 175 173 171 169 174 176 175 176 176 177 178 177 178 179 183 183 178 177 177 180 184 180 174 171 172 173 169 161 159 160 160 160 162 162 155 149 146 145 146 146 145 144 144 140 133 128 123 119 117 116 118 120 120 117 112 110 118 121 119 121 119 112 107 103 99 93 89 90 88 87 85 81 81
161 167 169 173 175 176 174 176 180 184 185 182 178 176 173 174 178 180 179 179 180 180 182 184 187 187 188 186 182 180 179 180 185 186 183 181 178 177 177 170 165 164 163 163 164 164 160 154 151 149 149 147 145 145 144 140 133 128 124 121 118 117 119 121 119 115 112 113 126 134 129 123 116 112 110 103 97 93 89 90 88 86 84 82 80
169 170 174 178 180 181 181 183 186 186 186 185 182 180 181 182 183 182 181 181 183 183 184 190 194 193 192 192 189 184 182 183 185 190 189 185 183 182 184 177 168 165 163 166 168 169 167 160 155 151 149 147 146 146 146 143 137 131 129 125 122 121 122 124 124 120 117 119 129 133 126 121 116 112 109 102 97 93 87 85 85 82 80 82 77
173 173 178 186 187 186 189 192 192 189 186 187 187 187 188 187 185 183 183 185 185 188 190 194 196 196 198 197 193 188 187 187 187 191 190 190 188 184 186 183 175 168 165 169 172 174 171 165 159 152 150 150 149 150 151 149 144 138 135 132 129 128 129 132 133 130 125 123 126 132 133 134 128 119 111 105 102 95 91 92 92 88 83 83 81
176 178 180 186 188 190 196 198 197 192 189 193 194 194 192 187 186 185 187 189 189 194 196 195 197 197 199 201 197 193 191 189 189 190 193 195 192 186 186 188 184 174 169 172 175 177 174 168 162 155 152 153 153 155 155 154 153 149 146 143 138 137 138 138 138 137 134 128 126 144 152 141 123 122 121 113 107 101 99 99 96 92 83 79 88
184 181 180 184 189 194 200 199 196 196 196 200 201 199 197 191 188 188 192 194 195 200 200 197 201 202 201 202 202 200 197 191 188 188 194 198 195 193 190 193 192 179 172 174 177 178 174 170 167 161 155 156 159 159 158 159 160 161 160 157 150 148 146 142 141 139 138 133 130 150 159 141 118 119 125 120 111 106 104 102 98 97 87 82 94
192 189 191 196 198 198 199 194 196 203 206 208 207 205 205 204 199 194 197 200 203 206 205 203 206 208 208 208 205 204 205 200 194 188 193 199 199 201 196 195 198 188 178 177 179 180 176 174 172 167 163 164 167 166 166 164 165 169 170 169 163 155 151 151 151 144 140 139 136 142 149 149 141 128 125 122 115 110 107 105 105 109 101 94 96
197 199 203 209 206 199 194 193 203 212 212 208 207 209 212 216 211 201 203 207 210 211 209 210 213 213 213 215 211 208 208 207 201 192 193 199 202 204 200 197 197 194 189 184 184 184 179 178 175 173 172 170 169 168 171 170 171 173 173 177 171 158 156 158 158 153 150 150 146 144 142 147 153 142 128 124 118 114 114 115 118 112 101 104 107
204 206 209 215 209 204 199 200 213 217 215 210 213 221 217 218 219 211 210 212 217 220 216 217 221 221 219 220 220 216 212 210 207 200 198 204 207 204 200 199 198 197 196 193 193 191 185 181 176 173 175 174 168 166 171 174 176 175 178 182 173 160 162 161 161 163 160 158 155 148 141 140 144 139 131 135 134 129 126 123 122 113 104 113 110
209 208 210 213 208 212 216 218 223 222 223 226 229 232 222 215 218 218 217 218 226 230 225 224 226 228 228 227 226 221 215 212 210 208 204 207 209 203 199 200 202 202 201 201 201 200 193 185 179 174 174 176 170 166 169 171 172 172 178 180 173 167 166 163 165 168 165 164 160 149 142 141 143 139 134 144 151 148 139 115 109 109 117 120 104
209 209 207 209 207 212 217 217 221 220 222 226 227 230 223 215 215 223 223 226 237 238 234 232 231 235 240 239 232 222 218 215 214 215 211 211 208 202 200 199 202 206 207 207 206 205 199 192 187 179 174 173 169 165 165 168 167 168 173 174 174 173 165 166 168 168 168 164 162 155 147 145 148 147 137 133 139 146 136 114 109 112 120 122 112
212 211 204 207 208 210 214 213 218 222 223 226 227 224 221 219 223 231 226 228 247 247 244 242 240 245 248 248 237 226 226 226 222 223 222 221 214 206 204 198 198 205 209 210 208 207 203 197 193 187 181 173 164 163 160 161 166 168 170 170 175 173 164 167 169 168 169 167 165 159 154 150 153 154 141 132 130 135 134 124 117 112 108 109 119
216 212 202 204 208 212 216 216 224 228 227 234 236 228 224 225 231 232 226 232 250 246 242 245 250 253 249 251 246 234 232 235 237 235 234 234 224 214 210 199 193 198 204 207 209 209 205 199 191 188 188 178 163 158 157 158 165 169 170 173 175 171 167 168 171 171 170 172 172 164 160 157 157 152 142 138 134 132 136 133 121 113 107 102 111
219 211 204 204 206 216 219 217 223 225 227 236 241 236 231 228 230 231 230 233 238 235 235 244 255 261 262 264 253 241 237 241 246 243 240 242 237 226 218 206 194 193 196 201 206 207 204 201 190 183 186 180 166 158 160 158 161 167 169 174 175 171 170 170 173 173 174 183 181 172 164 160 160 151 146 147 144 139 143 139 123 115 116 112 113
223 205 198 202 204 215 214 211 220 220 222 232 239 237 230 224 225 229 231 228 224 225 232 242 248 253 264 272 263 255 253 250 250 248 242 244 243 236 228 217 203 194 191 196 202 202 200 198 193 185 176 174 170 163 160 156 156 164 166 170 174 173 171 172 180 180 184 191 187 183 173 163 163 155 156 163 159 154 153 147 141 135 133 136 133
211 197 191 198 203 212 202 208 227 229 227 232 237 235 221 212 210 216 227 226 220 222 235 242 243 243 251 267 270 267 266 258 253 251 246 242 240 240 238 228 214 203 194 196 201 200 199 197 192 183 168 160 166 163 159 157 153 153 159 166 171 176 178 179 189 194 195 197 193 196 186 172 172 165 169 179 178 176 170 160 167 168 157 167 164
162 182 193 203 207 214 209 217 233 236 233 233 234 231 218 211 206 204 215 218 217 223 237 242 240 239 243 255 263 263 264 262 255 253 250 242 236 242 244 233 221 213 202 202 203 200 201 199 191 180 169 161 161 167 168 158 149 148 153 157 161 177 190 191 196 202 207 208 206 207 198 188 188 181 182 192 199 203 198 195 193 194 188 187 186
146 167 188 213 222 225 221 224 230 232 236 236 232 228 224 222 218 209 209 210 214 219 225 231 232 234 240 249 254 252 253 256 253 254 252 241 231 237 246 237 223 215 208 205 204 202 201 198 189 180 176 171 166 172 172 163 157 160 158 151 149 166 186 196 204 210 215 218 215 214 209 204 204 201 203 205 210 216 219 223 224 220 205 194 199
104 167 196 227 230 226 225 230 232 227 231 236 237 237 237 239 237 227 219 214 216 219 220 223 226 229 234 241 247 246 246 248 248 251 252 244 233 230 237 236 225 215 209 204 202 204 202 195 188 182 176 173 172 177 179 175 168 162 159 158 153 160 172 187 199 198 206 217 216 215 214 214 220 221 216 214 217 224 230 233 237 237 216 207 211
107 198 225 232 223 225 234 239 237 232 233 236 239 248 254 254 253 245 237 234 231 229 226 223 224 228 234 239 245 247 246 244 243 248 252 249 241 232 226 225 223 215 207 203 201 203 205 200 196 192 180 170 169 181 186 183 173 165 160 161 163 180 199 182 184 182 185 206 211 213 215 215 222 224 211 211 219 223 229 235 234 231 218 214 212
127 195 223 238 237 241 247 243 240 243 245 246 248 253 256 252 248 244 242 242 242 238 231 226 221 223 230 238 244 248 248 246 242 244 250 251 246 238 227 217 218 216 208 206 204 205 209 204 200 201 194 182 172 177 189 188 183 180 168 155 160 196 219 182 179 187 189 196 201 206 211 209 213 216 202 205 217 218 221 227 223 223 216 207 201
353 230 237 254 259 260 259 253 252 254 248 248 253 255 255 251 237 236 242 242 245 245 242 238 231 226 229 234 240 247 248 245 240 239 242 245 244 239 229 216 214 219 214 210 208 209 210 205 204 209 205 195 181 174 187 191 193 192 177 168 180 208 195 175 179 191 191 199 202 197 201 202 207 212 208 209 216 214 216 220 221 223 219 206 196
314 288 271 267 269 267 267 265 264 268 263 255 255 256 256 254 249 251 256 258 259 261 261 258 254 248 243 238 238 242 244 240 238 240 239 234 233 233 228 218 214 222 220 213 211 207 204 207 210 212 207 197 189 182 186 189 192 197 189 182 194 200 176 173 184 184 176 197 204 199 201 203 209 214 214 216 214 212 219 222 219 219 220 212 195
306 287 279 279 282 278 275 274 271 273 274 265 256 257 260 258 256 258 261 263 266 269 270 265 263 262 258 252 245 244 246 246 242 240 231 217 218 221 218 215 214 220 221 217 211 197 193 207 210 210 207 199 196 190 187 190 191 194 194 192 192 182 175 176 187 184 172 176 186 199 206 201 211 215 208 209 211 209 214 217 212 210 214 215 207
318 300 293 291 292 288 283 282 281 280 281 275 261 257 264 264 261 262 261 261 264 266 266 262 261 263 264 261 253 249 248 247 241 232 219 208 211 215 213 214 214 217 218 216 211 197 195 211 214 212 211 205 201 197 192 195 196 192 190 187 174 164 172 178 180 181 179 164 170 188 189 182 195 205 201 202 207 205 203 206 210 212 211 211 213
337 320 311 304 298 295 291 288 291 293 293 291 281 270 270 269 265 265 263 260 259 259 259 261 261 261 264 261 257 256 251 243 235 228 217 209 210 212 211 213 212 213 215 214 213 204 199 214 220 215 213 211 206 204 203 200 198 196 190 182 172 166 170 180 185 183 177 171 173 174 178 183 180 185 198 200 194 195 196 199 205 209 207 202 200
352 340 330 318 307 302 302 301 302 305 306 305 298 287 281 278 274 270 267 264 261 257 256 257 258 258 259 259 258 258 255 245 234 228 219 210 211 214 213 213 210 208 210 213 214 205 198 211 217 213 212 210 203 204 209 203 197 198 193 187 183 179 178 182 186 186 179 174 169 159 176 190 178 174 190 189 180 190 192 195 200 199 198 194 193